Location: *
(46.3500°N, 10.9000°E)
Time: 00:56:54
(UTC+00:00)

Vanguard 2 - Pass Details

Date: 21 April 2021
Orbit: 552 x 2938 km, 32.9° (Epoch: 12 May)

Event Time Altitude Azimuth Distance (km) Brightness Sun altitude
Rises 16:59:37 0° 268° (W) 5,166 13.8 11.4°
Reaches altitude 10° 17:05:42 10° 246° (WSW) 3,561 12.1 10.3°
Maximum altitude 17:09:22 13° 221° (SW) 2,930 11.1 9.7°
Drops below altitude 10° 17:12:27 10° 194° (SSW) 2,849 10.6 9.2°
Sets 17:16:16 0° 167° (SSE) 3,406 10.6 8.5°
